Regional Weather Roundup
Issued by NWS

Home | Current Version | Previous Version | Text Only | Print | Product List | Glossary Off
Versions: 1 2 3 4 5 6 7 8 9 10 11 12 13 14 15 16 17 18 19 20 21 22 23 24 25 26 27 28 29 30 31 32 33 34 35 36 37 38 39 40 41 42 43 44 45 46 47 48 49 50

000
ASUS43 KLOT 290708
RWRIL

ILLINOIS REGIONAL WEATHER ROUNDUP
NATIONAL WEATHER SERVICE CHICAGO/ROMEOVILLE IL
200 AM CDT THU SEP 29 2016

NOTE: "FAIR" INDICATES FEW OR NO CLOUDS BELOW 12,000 FEET WITH NO
SIGNIFICANT WEATHER AND/OR OBSTRUCTIONS TO VISIBILITY.

* THESE STATIONS ARE NOT UNDER NWS QUALITY CONTROL. THEY ALSO MAY NOT
  REPORT WEATHER SUCH AS PRECIPITATION OR FOG.

ILZ001-002-007-009-015-016-024-290800-
NORTHWEST ILLINOIS

CITY           SKY/WX    TMP DP  RH WIND       PRES   REMARKS
MOLINE         CLEAR     55  48  77 N5        30.19S
STERLING*      MOCLDY    55  50  83 N13G18    30.17S
SAVANNA*       CLEAR     53  49  86 N10       30.19F
$$

ILZ003-004-008-010-011-017-018-290800-
NORTH CENTRAL ILLINOIS

CITY           SKY/WX    TMP DP  RH WIND       PRES   REMARKS
ROCKFORD       PTCLDY    56  51  84 N16G26    30.18S
FREEPORT*      CLEAR     52  49  89 N8        30.21R
ROCHELLE*      MOCLDY    55  51  87 N10       30.14S
DE KALB*       CLEAR     55  52  89 N15       30.12S
$$

ILZ005-006-012>014-019>023-290800-
NORTHEAST ILLINOIS

CITY           SKY/WX    TMP DP  RH WIND       PRES   REMARKS
CHICAGO-OHARE  MOCLDY    60  55  83 N17       30.07S
CHICAGO-MIDWAY CLOUDY    60  55  83 N17       30.05S
AURORA         CLEAR     58  53  84 N15       30.09S
LANSING*       CLOUDY    62  58  86 NE15G21   30.03S
JOLIET*        MOCLDY    59  56  91 N12       30.06S
WAUKEGAN       CLEAR     58  55  90 N14G22    30.10S
DUPAGE AIRPORT CLEAR     58  53  84 N14       30.08S
KANKAKEE*      DRIZZLE   57  55  95 NW9       30.04S
WHEELING       CLOUDY    59  55  87 N14       30.10R
MORRIS*        MOCLDY    57  54  90 N5        30.06S
ROMEOVILLE*    MOCLDY    57  57 100 N13G20    30.06F
NORTHERLY ISL    N/A     62  56  80 N13         N/A
$$

LMZ740>746-290800-
SOUTHERN LAKE MICHIGAN

STATION/POSITION SKY/WX   TEMP    WIND        PRES    VSBY  WAVE
                          AIR SEA DIR/SP/G                  HT/PER
                          (F)     (DEG/KT/KT) (MB)    (MI)  (FT/S)
SOUTHERN BUOY              65 69   50/ 25/ 31 1017.4          7/ 7
WILMETTE HARBOR            63 57   50/ 17/ 23   N/A           8/ 7
HARRISON CRIB              65      20/ 27/ 28   N/A
BURNHAM HARBOR             62     350/ 12/ 18   N/A
CALUMET HARBOR                     10/ 15/ 23 1016.8R
BURNS HARBOR               62      40/ 21/ 25 1016.6
MICHIGAN CITY              60      20/ 27/ 30   N/A
MICHIGAN CITY 6N           62 66   40/ 19/ 25   N/A           7/ 6
ST. JOSEPH                 60 65   40/ 19/ 25 1016.8          6/ 7
$$

ILZ025>027-034>036-040-047-049-050-058-095>099-290800-
WEST-CENTRAL ILLINOIS

CITY           SKY/WX    TMP DP  RH WIND       PRES   REMARKS
QUINCY         CLEAR     52  49  89 N10       30.19R
GALESBURG*     CLEAR     52  48  87 NW8       30.17R
MACOMB*        CLEAR     52  49  90 NW10      30.19S
JACKSONVILLE*  PTCLDY    52  49  89 NW7       30.13S
PITTSFIELD*    PTCLDY    53  49  89 NW7       30.18R
$$

ILZ028>032-037-038-041>044-048-051>054-059>061-290800-
CENTRAL ILLINOIS

CITY           SKY/WX    TMP DP  RH WIND       PRES   REMARKS
PONTIAC        CLOUDY    56  55  96 N9        30.08S
BLOOMINGTON    MOCLDY    56  50  80 N16       30.08R
DECATUR        PTCLDY    57  49  74 N14G23    30.05F
PEORIA         PTCLDY    54  50  86 N9        30.11F
LACON*         CLEAR     55  49  80 N12       30.10F
LINCOLN*       MOCLDY    56  51  85 N5        30.08F
SPRINGFIELD    PTCLDY    55  49  80 NW13      30.10S
TAYLORVILLE    PTCLDY    54  49  85 NW13      30.08S
$$

ILZ033-039-045-046-055>057-062-063-290800-
EAST-CENTRAL ILLINOIS

CITY           SKY/WX    TMP DP  RH WIND       PRES   REMARKS
CHAMPAIGN      MOCLDY    55  51  86 N13       30.02F
RANTOUL*       MOCLDY    56  54  92 NW9       30.01F
MATTOON        CLOUDY    56  49  77 N12       30.02S
PARIS*         CLOUDY    56  53  91 NW5       30.01F
$$

ILZ079-100>102-290800-
SOUTHWEST ILLINOIS

CITY           SKY/WX    TMP DP  RH WIND       PRES   REMARKS
BELLEVILLE     CLEAR     55  50  85 NW8       30.09S
CAHOKIA*       CLEAR     57  49  74 NW12      30.12S
SPARTA*        PTCLDY    52  49  89 W6        30.11S
$$

ILZ064>066-069>071-074>076-080>082-084>086-088>090-092>094-290800-
SOUTH-CENTRAL ILLINOIS

CITY           SKY/WX    TMP DP  RH WIND       PRES   REMARKS
CARBONDALE     CLEAR     51  49  92 NW6       30.09S
CAIRO*         PTCLDY    52  48  85 NW7       30.08F
EFFINGHAM*     CLOUDY    54  52  94 W7        30.05F
MARION         CLEAR     54  50  87 W3        30.08S
MT. VERNON     PTCLDY    52  45  76 CALM      30.07R
CENTRALIA*     PTCLDY    55  51  88 NW7       30.06F
SALEM*         CLEAR     53  49  86 NW7       30.06F
METROPOLIS*    PTCLDY    52  48  86 CALM      30.08S
$$

ILZ067-068-072-073-078-083-087-091-290800-
SOUTHEAST ILLINOIS

CITY           SKY/WX    TMP DP  RH WIND       PRES   REMARKS
LAWRENCEVILLE  CLOUDY    55  49  80 W7        30.02S
FLORA*         PTCLDY    54  50  87 NW9       30.04F
FAIRFIELD*       N/A     52  49  91 W3        30.04S
HARRISBURG*    PTCLDY    54  50  88 NW5       30.07R
ROBINSON*      CLOUDY    53  50  90 NW5       30.02S
CARMI*         CLEAR     52  49  92 W8        30.04S
$$

ABBREVIATIONS USED IN REMARKS
   TC - TEMPERATURE IN CELSIUS
  WCI - WIND CHILL INDEX
   HX - HEAT INDEX
  VSB - VISIBILITY
$$





USA.gov is the U.S. government's official web portal to all federal, state and local government web resources and services.